Regional Weather Roundup
Issued by NWS

Home | Current Version | Previous Version | Text Only | Print | Product List | Glossary Off
Versions: 1 2 3 4 5 6 7 8 9 10 11 12 13 14 15 16 17 18 19 20 21 22 23 24 25 26 27 28 29 30 31 32 33 34 35 36 37 38 39 40 41 42 43 44 45 46 47 48 49 50

000
ASUS45 KBOI 261810
RWRID
WEATHER ROUNDUP FOR IDAHO
NATIONAL WEATHER SERVICE BOISE ID
1100 AM MST THU FEB 26 2015

NOTE: "FAIR" INDICATES FEW OR NO CLOUDS BELOW 12000 FEET
WITH NO SIGNIFICANT WEATHER AND/OR OBSTRUCTIONS TO VISIBILITY

IDZ012-014-261900-
SOUTHWEST IDAHO


CITY           SKY/WX    TMP DP  RH WIND       PRES   REMARKS
BOISE          CLOUDY    42  34  73 W7        30.07F
CALDWELL       PTSUNNY   45  32  61 NW8       30.11S
MOUNTAIN HOME  PTSUNNY   43  34  70 NW16      30.06S
$$

IDZ016-017-261900-
SOUTHCENTRAL IDAHO


CITY           SKY/WX    TMP DP  RH WIND       PRES   REMARKS
BURLEY         CLOUDY    37  16  42 CALM      30.03S
JEROME         CLOUDY    34  28  79 S6        30.05S WCI  29
TWIN FALLS     CLOUDY    33  28  81 S9        30.05R WCI  25
$$

IDZ019>023-261900-
SOUTHEAST IDAHO


CITY           SKY/WX    TMP DP  RH WIND       PRES   REMARKS
IDAHO FALLS    MOSUNNY   34  12  40 N13       30.02F WCI  25
POCATELLO      PTSUNNY   36  17  46 NE8       30.02S WCI  30
REXBURG        MOSUNNY   33  12  41 NE6       30.02S WCI  28
$$

IDZ006-010-011-018-031-032-261900-
CENTRAL IDAHO MOUNTAINS


CITY           SKY/WX    TMP DP  RH WIND       PRES   REMARKS
MCCALL         CLOUDY    32  28  85 S3        30.00S
HAILEY         PTSUNNY   36  27  69 E5        30.01  WCI  32
STANLEY          N/A     31  19  61 CALM      29.98F
SALMON         CLOUDY    32  19  59 CALM      30.06S
CHALLIS        MOSUNNY   34  20  56 E5        30.00F WCI  30
$$

IDZ002-004-006-007-026-261900-
NORTHERN IDAHO


CITY           SKY/WX    TMP DP  RH WIND       PRES   REMARKS
LEWISTON       LGT RAIN  40  37  89 E3        30.16R
LOWELL           N/A     39  32  76 S6        30.16F WCI  35
COEUR D`ALENE  PTSUNNY   37  28  70 N12       30.12S WCI  30
MULLAN PASS    CLOUDY    22  19  89 VRB5      30.01S WCI  16
$$


USA.gov is the U.S. government's official web portal to all federal, state and local government web resources and services.